TimeEDT,TemperatureF,Dew PointF,Humidity,Sea Level PressureIn,VisibilityMPH,Wind Direction,Wind SpeedMPH,Gust SpeedMPH,PrecipitationIn,Events,Conditions,WindDirDegrees,DateUTC
12:54 AM,48.0,46.0,93,30.20,10.0,Calm,Calm,-,N/A,,Clear,0,2013-08-24 04:54:00
1:54 AM,46.0,44.1,93,30.21,10.0,Calm,Calm,-,N/A,,Clear,0,2013-08-24 05:54:00
2:54 AM,46.9,44.1,90,30.22,10.0,Calm,Calm,-,N/A,,Clear,0,2013-08-24 06:54:00
3:54 AM,45.0,44.1,97,30.25,9.0,Calm,Calm,-,N/A,,Clear,0,2013-08-24 07:54:00
4:54 AM,45.0,43.0,93,30.26,2.0,Calm,Calm,-,N/A,,Clear,0,2013-08-24 08:54:00
5:06 AM,42.8,41.0,93,30.27,7.0,Calm,Calm,-,N/A,,Clear,0,2013-08-24 09:06:00
5:15 AM,42.8,41.0,93,30.27,2.5,Calm,Calm,-,N/A,,Clear,0,2013-08-24 09:15:00
5:22 AM,44.6,42.8,93,30.27,10.0,Calm,Calm,-,N/A,,Clear,0,2013-08-24 09:22:00
5:45 AM,42.8,42.8,100,30.28,1.8,Calm,Calm,-,0.01,,Clear,0,2013-08-24 09:45:00
5:54 AM,43.0,41.0,93,30.29,0.8,Calm,Calm,-,0.01,,Clear,0,2013-08-24 09:54:00
5:59 AM,42.8,42.8,100,30.29,2.0,Calm,Calm,-,N/A,,Clear,0,2013-08-24 09:59:00
6:12 AM,44.6,42.8,93,30.29,1.2,Calm,Calm,-,N/A,,Clear,0,2013-08-24 10:12:00
6:20 AM,42.8,42.8,100,30.30,3.0,Calm,Calm,-,N/A,,Clear,0,2013-08-24 10:20:00
6:54 AM,44.1,43.0,96,30.31,10.0,Calm,Calm,-,N/A,,Clear,0,2013-08-24 10:54:00
7:54 AM,53.1,50.0,89,30.33,10.0,Calm,Calm,-,N/A,,Clear,0,2013-08-24 11:54:00
8:54 AM,57.9,50.0,75,30.34,10.0,Calm,Calm,-,N/A,,Clear,0,2013-08-24 12:54:00
9:54 AM,63.0,48.9,60,30.33,10.0,Calm,Calm,-,N/A,,Clear,0,2013-08-24 13:54:00
10:54 AM,66.9,50.0,54,30.34,10.0,Variable,3.5,-,N/A,,Clear,0,2013-08-24 14:54:00
11:54 AM,69.1,50.0,51,30.33,10.0,Calm,Calm,-,N/A,,Clear,0,2013-08-24 15:54:00
12:54 PM,71.1,48.9,45,30.32,10.0,Variable,4.6,-,N/A,,Clear,0,2013-08-24 16:54:00
1:54 PM,72.0,48.0,43,30.32,10.0,Variable,4.6,-,N/A,,Clear,0,2013-08-24 17:54:00
2:54 PM,73.9,48.9,41,30.32,10.0,WNW,5.8,-,N/A,,Clear,290,2013-08-24 18:54:00
3:54 PM,75.0,50.0,41,30.31,10.0,Calm,Calm,-,N/A,,Clear,0,2013-08-24 19:54:00
4:54 PM,75.0,51.1,43,30.30,10.0,WNW,4.6,-,N/A,,Clear,300,2013-08-24 20:54:00
5:54 PM,73.9,54.0,50,30.30,10.0,West,3.5,-,N/A,,Clear,280,2013-08-24 21:54:00
6:54 PM,70.0,55.0,59,30.31,10.0,Calm,Calm,-,N/A,,Clear,0,2013-08-24 22:54:00
7:54 PM,62.1,55.0,78,30.32,10.0,SSW,4.6,-,N/A,,Clear,210,2013-08-24 23:54:00
8:54 PM,57.0,53.1,87,30.34,10.0,Calm,Calm,-,N/A,,Clear,0,2013-08-25 00:54:00
9:54 PM,54.0,52.0,93,30.35,10.0,Calm,Calm,-,N/A,,Clear,0,2013-08-25 01:54:00
10:54 PM,53.1,50.0,89,30.36,10.0,Calm,Calm,-,N/A,,Clear,0,2013-08-25 02:54:00
11:54 PM,52.0,50.0,93,30.36,10.0,Calm,Calm,-,N/A,,Clear,0,2013-08-25 03:54:00